User: anonymous
Location: Mount Tamalpais State Park
(37.9108°N, 122.6128°W)
Time: 20:06:25
(UTC-07:00)
Language:

Cosmos 1814 Rocket - Orbit

View from above orbital plane
View from above orbital plane
View from above satellite
View from above satellite

Ground track
Ground track

The orbit data is extracted from the following two-line orbital elements,

1 17304U 87006B   14206.09126406 -.00000020  00000-0  20101-5 0  1788
2 17304 074.0575 235.1702 0030684 337.0614 083.3909 14.37329381441260
Epoch (UTC): 25 July 2014 02:11:25
Eccentricity: 0.0030684
inclination: 74.0575°
perigee height: 745 km
apogee height: 789 km
right ascension of ascending node: 235.1702°
argument of perigee: 337.0614°
revolutions per day: 14.37329381
mean anomaly at epoch: 83.3909°
orbit number at epoch: 44126

The dashed part of the orbit path shows where the satellite is in the earth's shadow,  

DLR